When you browse on this site, cookies collect data to enhance your experience and personalize the content and advertising you see.
Visit our Privacy Policy to learn more. By continuing to use the site, you agree to this use of cookies and data.
  • In Czech Republic
  • List of Countries
  • For 7 days
  • Water Temperature
  • Weather Map
  • Weather Widgets
  • user-avatar
    Login

    Hourly Weather Saldus

    Today, 29 May, Friday

    Time Temperature Precipitation Wind Pressure Humidity
    00:00 +5°C° 0 mm 2 mps 761 mmHg 83%
    01:00 +4°C° 0 mm 2 mps 761 mmHg 86%
    02:00 +3°C° 0 mm 3 mps 761 mmHg 88%
    03:00 +3°C° 0 mm 3 mps 761 mmHg 88%
    04:00 +3°C° 0 mm 3 mps 761 mmHg 88%
    05:00 +4°C° 0 mm 3 mps 761 mmHg 87%
    06:00 +7°C° 0 mm 3 mps 761 mmHg 79%
    07:00 +8°C° 0 mm 4 mps 761 mmHg 71%
    08:00 +11°C° 0 mm 4 mps 761 mmHg 63%
    09:00 +12°C° 0 mm 5 mps 761 mmHg 59%
    10:00 +14°C° 0 mm 5 mps 761 mmHg 54%
    11:00 +15°C° 0 mm 5 mps 761 mmHg 50%
    12:00 +15°C° 0 mm 5 mps 761 mmHg 48%
    13:00 +16°C° 0 mm 5 mps 760 mmHg 47%
    14:00 +16°C° 0 mm 5 mps 760 mmHg 45%
    15:00 +15°C° 0 mm 5 mps 760 mmHg 46%
    16:00 +15°C° 0 mm 5 mps 760 mmHg 48%
    17:00 +14°C° 0 mm 5 mps 759 mmHg 49%
    18:00 +13°C° 0 mm 5 mps 759 mmHg 56%
    19:00 +12°C° 0 mm 4 mps 759 mmHg 63%
    20:00 +10°C° 0 mm 4 mps 759 mmHg 70%
    21:00 +8°C° 0 mm 4 mps 759 mmHg 76%
    22:00 +8°C° 0 mm 3 mps 759 mmHg 81%
    23:00 +7°C° 0 mm 3 mps 759 mmHg 87%

    Tomorrow, 30 May, Saturday

    Time Temperature Precipitation Wind Pressure Humidity
    00:00 +5°C° 0 mm 3 mps 759 mmHg 89%
    01:00 +5°C° 0 mm 3 mps 759 mmHg 91%
    02:00 +5°C° 0 mm 3 mps 759 mmHg 94%
    03:00 +5°C° 0 mm 3 mps 759 mmHg 93%
    04:00 +5°C° 0 mm 3 mps 759 mmHg 93%
    05:00 +5°C° 0 mm 3 mps 758 mmHg 93%
    06:00 +9°C° 0 mm 3 mps 758 mmHg 81%
    07:00 +11°C° 0 mm 4 mps 758 mmHg 70%
    08:00 +13°C° 0 mm 5 mps 758 mmHg 58%
    09:00 +14°C° 0 mm 5 mps 758 mmHg 53%
    10:00 +15°C° 0 mm 6 mps 758 mmHg 48%
    11:00 +16°C° 0 mm 6 mps 758 mmHg 44%
    12:00 +17°C° 0 mm 7 mps 757 mmHg 44%
    13:00 +17°C° 0 mm 7 mps 757 mmHg 44%
    14:00 +17°C° 0 mm 7 mps 757 mmHg 44%
    15:00 +17°C° 0 mm 7 mps 757 mmHg 46%
    16:00 +17°C° 0 mm 7 mps 756 mmHg 47%
    17:00 +17°C° 0 mm 6 mps 756 mmHg 49%
    18:00 +16°C° 0 mm 6 mps 756 mmHg 52%
    19:00 +15°C° 0 mm 6 mps 756 mmHg 56%
    20:00 +14°C° 0 mm 5 mps 756 mmHg 59%
    21:00 +13°C° 0 mm 5 mps 756 mmHg 59%
    22:00 +13°C° 0 mm 5 mps 756 mmHg 60%
    23:00 +12°C° 0 mm 5 mps 756 mmHg 60%

    Day after tomorrow, 31 May, Sunday

    Time Temperature Precipitation Wind Pressure Humidity
    00:00 +12°C° 0 mm 5 mps 756 mmHg 60%
    01:00 +12°C° 0 mm 5 mps 756 mmHg 61%
    02:00 +10°C° 0 mm 5 mps 756 mmHg 62%
    03:00 +10°C° 0 mm 6 mps 756 mmHg 63%
    04:00 +10°C° 0 mm 6 mps 757 mmHg 65%
    05:00 +10°C° 0 mm 6 mps 757 mmHg 66%
    06:00 +11°C° 0 mm 6 mps 757 mmHg 63%
    07:00 +12°C° 0 mm 7 mps 757 mmHg 61%
    08:00 +14°C° 0 mm 7 mps 757 mmHg 58%
    09:00 +15°C° 0 mm 7 mps 757 mmHg 55%
    10:00 +16°C° 0 mm 7 mps 757 mmHg 53%
    11:00 +17°C° 0 mm 7 mps 758 mmHg 51%
    12:00 +17°C° 0 mm 7 mps 758 mmHg 48%
    13:00 +18°C° 0 mm 7 mps 758 mmHg 46%
    14:00 +18°C° 0 mm 7 mps 758 mmHg 44%
    15:00 +18°C° 0 mm 7 mps 758 mmHg 45%
    16:00 +19°C° 0 mm 6 mps 758 mmHg 46%
    17:00 +19°C° 0 mm 6 mps 758 mmHg 47%
    18:00 +16°C° 0 mm 6 mps 758 mmHg 51%
    19:00 +15°C° 0 mm 5 mps 759 mmHg 56%
    20:00 +14°C° 0 mm 4 mps 759 mmHg 60%
    21:00 +13°C° 0 mm 4 mps 759 mmHg 60%
    22:00 +12°C° 0 mm 4 mps 760 mmHg 60%
    23:00 +11°C° 0 mm 4 mps 760 mmHg 61%

    1 June, Monday

    Time Temperature Precipitation Wind Pressure Humidity
    00:00 +10°C° 0 mm 4 mps 761 mmHg 64%
    01:00 +10°C° 0 mm 3 mps 761 mmHg 67%
    02:00 +9°C° 0 mm 3 mps 761 mmHg 70%
    03:00 +9°C° 0 mm 3 mps 761 mmHg 72%
    04:00 +8°C° 0 mm 3 mps 761 mmHg 75%
    05:00 +8°C° 0 mm 2 mps 762 mmHg 77%
    06:00 +10°C° 0 mm 3 mps 762 mmHg 71%
    07:00 +12°C° 0 mm 3 mps 762 mmHg 64%
    08:00 +14°C° 0 mm 4 mps 762 mmHg 57%
    09:00 +17°C° 0 mm 4 mps 762 mmHg 55%
    10:00 +18°C° 0 mm 4 mps 762 mmHg 52%
    11:00 +19°C° 0 mm 4 mps 762 mmHg 50%
    12:00 +20°C° 0 mm 4 mps 762 mmHg 48%
    13:00 +21°C° 0 mm 4 mps 762 mmHg 47%
    14:00 +22°C° 0 mm 4 mps 761 mmHg 45%
    15:00 +21°C° 0 mm 4 mps 761 mmHg 47%
    16:00 +21°C° 0 mm 4 mps 761 mmHg 48%
    17:00 +21°C° 0 mm 4 mps 761 mmHg 49%
    18:00 +20°C° 0 mm 4 mps 760 mmHg 56%
    19:00 +18°C° 0 mm 3 mps 760 mmHg 62%
    20:00 +17°C° 0 mm 3 mps 760 mmHg 68%
    21:00 +14°C° 0 mm 3 mps 760 mmHg 72%
    22:00 +13°C° 0 mm 3 mps 760 mmHg 76%
    23:00 +12°C° 0 mm 2 mps 760 mmHg 80%

    2 June, Tuesday

    Time Temperature Precipitation Wind Pressure Humidity
    00:00 +12°C° 0 mm 2 mps 760 mmHg 81%
    01:00 +10°C° 0 mm 2 mps 760 mmHg 81%
    02:00 +10°C° 0 mm 2 mps 760 mmHg 81%
    03:00 +10°C° 0 mm 2 mps 759 mmHg 81%
    04:00 +10°C° 0 mm 2 mps 759 mmHg 81%
    05:00 +11°C° 0 mm 1 mps 759 mmHg 81%
    06:00 +13°C° 0 mm 1 mps 759 mmHg 76%
    07:00 +15°C° 0 mm 1 mps 759 mmHg 70%
    08:00 +18°C° 0 mm 1 mps 759 mmHg 65%
    09:00 +19°C° 0 mm 2 mps 759 mmHg 61%
    10:00 +20°C° 0 mm 2 mps 759 mmHg 56%
    11:00 +22°C° 0 mm 3 mps 759 mmHg 52%
    12:00 +22°C° 0 mm 3 mps 759 mmHg 50%
    13:00 +24°C° 0 mm 3 mps 759 mmHg 48%
    14:00 +23°C° 0 mm 4 mps 758 mmHg 46%
    15:00 +24°C° 0 mm 3 mps 758 mmHg 47%
    16:00 +24°C° 0 mm 3 mps 758 mmHg 49%
    17:00 +24°C° 0 mm 3 mps 757 mmHg 51%
    18:00 +21°C° 0 mm 3 mps 757 mmHg 60%
    19:00 +19°C° 0 mm 2 mps 757 mmHg 69%
    20:00 +19°C° 0 mm 1 mps 757 mmHg 78%
    21:00 +16°C° 0 mm 1 mps 757 mmHg 81%
    22:00 +14°C° 0 mm 1 mps 757 mmHg 85%
    23:00 +12°C° 0 mm 0 mps 757 mmHg 89%

    3 June, Wednesday

    Time Temperature Precipitation Wind Pressure Humidity
    00:00 +11°C° 0 mm 0 mps 756 mmHg 89%
    01:00 +11°C° 0 mm 0 mps 756 mmHg 89%
    02:00 +11°C° 0 mm 0 mps 756 mmHg 90%
    03:00 +11°C° 0 mm 0 mps 756 mmHg 89%
    04:00 +11°C° 0 mm 0 mps 756 mmHg 88%
    05:00 +12°C° 0 mm 0 mps 756 mmHg 88%
    06:00 +14°C° 0 mm 0 mps 756 mmHg 81%
    07:00 +16°C° 0 mm 0 mps 756 mmHg 74%
    08:00 +18°C° 0 mm 0 mps 756 mmHg 68%
    09:00 +20°C° 0.1 mm 0 mps 756 mmHg 62%
    10:00 +21°C° 0.1 mm 0 mps 756 mmHg 57%
    11:00 +23°C° 0.1 mm 0 mps 756 mmHg 51%
    12:00 +25°C° 0.8 mm 1 mps 756 mmHg 54%
    13:00 +24°C° 0.8 mm 1 mps 756 mmHg 57%
    14:00 +24°C° 0.8 mm 1 mps 755 mmHg 61%
    15:00 +23°C° 1.3 mm 1 mps 755 mmHg 68%
    16:00 +21°C° 1.3 mm 2 mps 755 mmHg 75%
    17:00 +20°C° 1.3 mm 2 mps 755 mmHg 82%
    18:00 +19°C° 0.4 mm 2 mps 755 mmHg 84%
    19:00 +19°C° 0.4 mm 1 mps 754 mmHg 85%
    20:00 +18°C° 0.4 mm 1 mps 754 mmHg 87%
    21:00 +16°C° 0 mm 1 mps 754 mmHg 88%
    22:00 +15°C° 0 mm 1 mps 754 mmHg 90%
    23:00 +14°C° 0 mm 1 mps 754 mmHg 91%
    Show more